Flag Weather past 2 weeks in Hennef (Sieg), North Rhine-Westphalia, Germany

Now
60 °F

Passing clouds.


Feels Like: 60 °F
Forecast: 51 / 66 °F
Wind: 3 mph from South

Location: Bonn-Hangelar

Current Time: Oct 30, 2014 at 6:00:53 PM

Latest Report: Oct 30, 2014 at 5:00 PM


Visibility: 19 mi

Pressure: 30.19 "Hg

Humidity: 78%

Dew point: 54 °F

Location of Hennef (Sieg)Location

Historic Weather in Hennef (Sieg) — Graph

°F

Hennef (Sieg) temperature yesterday

Maximum temperature yesterday: 51 °F (at 10:00 PM)
Minimum temperature yesterday: 40 °F (at 2:00 AM)
Average temperature yesterday: 47 °F

Past Weeks' High & Low Weather Summary

 TemperatureHumidityPressure
High72 °F (Oct 18, 5:00 PM)99% (Oct 29, 6:00 PM)30.29 "Hg (Oct 29, 6:00 PM)
Low38 °F (Oct 28, 8:00 AM)59% (Oct 18, 4:00 PM)29.55 "Hg (Oct 21, 4:00 PM)
Average54 °F84%30.05 "Hg
* Reported Oct 15 6:00 PM — Oct 30 5:00 PM, Hennef (Sieg), Weather by CustomWeather, © 2014

Note: Actual official high and low records may vary slightly from our data, if they occured in-between our weather recording intervals... More about our weather records

Advertising

Hennef (Sieg) weather history for previous 24 hours

 ConditionsComfort  
Time TempWeatherWind HumidityBarometerVisibility
5:00 PM
Oct 30
60 °FPassing clouds.3 mph78%30.19 "Hg19 mi
4:00 PM61 °FPartly sunny.3 mph76%30.20 "Hg19 mi
3:00 PM62 °FOvercast.3 mph77%30.20 "Hg19 mi
2:00 PM61 °FOvercast.5 mph76%30.20 "Hg19 mi
1:00 PM61 °FOvercast.3 mph77%30.21 "Hg16 mi
12:00 PM60 °FPartly sunny.5 mph77%30.21 "Hg14 mi
11:00 AM59 °FPartly sunny.3 mph84%30.21 "Hg9 mi
10:00 AM56 °FOvercast.1 mph92%30.21 "Hg6 mi
9:00 AM54 °FFog.1 mph96%30.20 "Hg4 mi
8:00 AM53 °FFog.2 mph98%30.19 "Hg1 mi
7:00 AM53 °FFog.2 mph95%30.19 "Hg4 mi
6:00 AM53 °FLow clouds.1 mph94%30.17 "Hg6 mi
5:00 AM53 °FPassing clouds.3 mph92%30.16 "Hg5 mi
4:00 AM52 °FFog.2 mph94%30.15 "Hg4 mi
3:00 AM52 °FLow clouds.2 mph95%30.16 "Hg3 mi
2:00 AM52 °FFog.3 mph96%30.15 "Hg2 mi
1:00 AM51 °FLow clouds.2 mph97%30.15 "Hg2 mi
12:00 AM51 °FFog.2 mph97%30.14 "Hg2 mi
11:00 PM
Oct 29
51 °FFog.2 mph97%30.14 "Hg3 mi
10:00 PM51 °FLow clouds.2 mph97%30.13 "Hg3 mi
9:00 PM51 °FLow clouds.2 mph99%30.13 "Hg2 mi
8:00 PM51 °FDrizzle. Low clouds.2 mph98%30.12 "Hg2 mi
7:00 PM51 °FFog.3 mph98%30.10 "Hg2 mi
6:00 PM51 °FRain. Dense fog.2 mph99%30.09 "Hg1 mi
Weather by CustomWeather, © 2014

See weather overviewHow to use our weather pages